[[{"header":{"parameterUnit":"m.s-1","parameterCategory":2,"la1":30.2991,"la2":30.254,"lo1":-89.0895,"lo2":-89.0444,"dy":0.0017,"dx":0.0017,"nx":28,"ny":28,"refTime":"2023-04-22T21:00:00:Z","depth":"0","parameterNumber":2,"parameterNumberName":"U-component_of_CURRENTS"},"data":[0,0,0,0,0,0,0,0,0,0,0,0,0,0,0,0,0,0,0,0,0,0,0,0,0,0,0,0,0,0,0,0,0,0,0,0,0,0,0,0,0,0,0,0,0,0,0,0,0,0,0,0,0,0,0,0,0,0,-0.2305,-0.2306,0,-0.2354,-0.2355,-0.2355,-0.2358,-0.2358,-0.2357,-0.2357,-0.2528,-0.2532,-0.2537,0,0,0,0,0,0,0,0,0,0,0,0,0,-0.226,-0.226,-0.2305,-0.2306,-0.2307,-0.2354,-0.2355,-0.2355,-0.2358,-0.2358,-0.2357,-0.2357,-0.2526,-0.2532,-0.2538,0,0,0,0,0,0,0,0,0,0,0,0,0,-0.229,-0.2261,-0.2305,-0.2315,-0.2316,-0.2354,-0.2355,-0.2355,-0.2358,-0.2358,-0.2357,-0.2356,-0.2524,-0.2531,-0.2539,-0.2598,0,0,-0.2561,-0.2565,0,0,0,0,0,0,0,0,-0.2288,-0.2292,-0.2313,-0.2314,-0.2316,-0.235,-0.2401,-0.2443,-0.2359,-0.2341,-0.2357,-0.2356,-0.2481,-0.2492,-0.2499,-0.2606,-0.2613,-0.2562,-0.2566,-0.257,-0.2572,0,0,0,0,0,0,0,-0.2286,-0.229,-0.2323,-0.2314,-0.2316,-0.2332,-0.2335,-0.2409,-0.2416,-0.2343,-0.2343,-0.2351,-0.2482,-0.2492,-0.2504,-0.2616,-0.2562,-0.2568,-0.2573,-0.2576,-0.2724,-0.2724,0,0,0,0,0,0,-0.2281,-0.2288,-0.2322,-0.2325,-0.2302,-0.2334,-0.2337,-0.2339,-0.2412,-0.2422,-0.2351,-0.2351,-0.2479,-0.2495,-0.251,-0.2517,-0.257,-0.2577,-0.2581,-0.2725,-0.2724,-0.2724,0,0,0,0,0,0,-0.228,-0.2283,-0.232,-0.2309,-0.2315,-0.2335,-0.2338,-0.234,-0.2347,-0.2418,-0.2429,-0.2354,-0.2479,-0.2499,-0.2544,-0.2526,-0.258,-0.2587,-0.2725,-0.2725,-0.2724,-0.2576,0,0,0,0,0,0,-0.2278,-0.2282,-0.2281,-0.2308,-0.2315,-0.2331,-0.2338,-0.2342,-0.2353,-0.2353,-0.2425,-0.2439,-0.248,-0.2532,-0.2552,-0.2538,-0.2592,-0.2726,-0.2725,-0.2724,-0.2581,-0.257,-0.256,0,0,0,0,0,-0.2276,-0.2273,-0.2281,-0.2285,-0.2313,-0.2331,-0.2336,-0.2348,-0.2354,-0.2352,-0.2384,-0.2437,-0.254,-0.2538,-0.2561,-0.2548,-0.2726,-0.2725,-0.2724,-0.2586,-0.2572,-0.2561,0,0,0,0,0,0,-0.2252,-0.2275,-0.2283,-0.2287,-0.2304,-0.2332,-0.2333,-0.2348,-0.2372,-0.2373,-0.2435,-0.2452,-0.2483,-0.2544,-0.254,-0.2589,-0.2642,-0.2645,-0.2529,-0.2517,-0.2507,-0.2468,-0.2599,0,0,0,0,0,-0.2248,-0.2249,-0.2276,-0.2278,-0.2285,-0.2311,-0.2321,-0.233,-0.2357,-0.2366,-0.241,-0.2461,-0.2499,-0.2528,-0.2578,-0.2616,-0.2623,-0.2624,-0.2613,-0.2604,-0.2588,-0.256,-0.2544,-0.272,-0.272,-0.272,0,0,-0.2239,-0.2252,-0.2253,-0.2273,-0.2287,-0.2292,-0.2314,-0.2324,-0.2319,-0.2387,-0.2394,-0.2433,-0.2501,-0.2519,-0.2541,-0.2567,-0.2556,-0.2602,-0.2593,-0.2583,-0.2557,-0.2539,-0.2523,-0.2719,-0.2719,-0.2719,0,0,-0.2222,-0.2233,-0.2229,-0.2242,-0.2262,-0.2276,-0.2278,-0.2302,-0.23,-0.2322,-0.235,-0.2354,-0.2453,-0.2451,-0.2477,-0.2447,-0.2501,-0.2494,-0.2411,-0.2382,-0.2366,-0.2353,-0.2321,-0.2306,-0.2488,-0.2488,-0.2488,0,-0.2213,-0.2211,-0.2231,-0.2233,-0.2239,-0.2265,-0.2263,-0.2267,-0.2297,-0.2293,-0.2311,-0.2364,-0.2404,-0.2397,-0.2368,-0.2417,-0.2423,-0.2446,-0.2363,-0.235,-0.2338,-0.2309,-0.2294,-0.2481,-0.2481,-0.2482,-0.2483,0,-0.2193,-0.2196,-0.2194,-0.2201,-0.2208,-0.221,-0.2222,-0.2222,-0.2231,-0.2234,-0.2229,-0.2252,-0.2283,-0.2288,-0.2318,-0.2263,-0.2299,-0.2346,-0.2381,-0.231,-0.2286,-0.2273,-0.247,-0.2473,-0.2475,-0.2477,0,0,-0.2164,-0.2178,-0.2177,-0.2179,-0.2191,-0.2198,-0.2182,-0.2177,-0.2171,-0.2165,-0.2148,-0.2141,-0.2148,-0.2174,-0.2199,-0.2153,-0.2048,-0.2207,-0.2209,-0.215,-0.1986,-0.1923,-0.1904,-0.2088,-0.2085,-0.2083,-0.1994,0,-0.2143,-0.2139,-0.2149,-0.2142,-0.2141,-0.2156,-0.2147,-0.2142,-0.2144,-0.2134,-0.2108,-0.2116,-0.2111,-0.2124,-0.2065,-0.2083,-0.2011,-0.2067,-0.2087,-0.2087,-0.2018,-0.1885,-0.1852,-0.1762,-0.1982,-0.198,-0.1978,0,-0.2113,-0.2119,-0.2109,-0.212,-0.2121,-0.2119,-0.2114,-0.2111,-0.2095,-0.2098,-0.2068,-0.2081,-0.2012,-0.2028,-0.1941,-0.1989,-0.1957,-0.1943,-0.1941,-0.1924,-0.1998,-0.1876,-0.1731,-0.1739,-0.1958,-0.196,-0.1961,0,-0.2078,-0.2087,-0.2077,-0.208,-0.2097,-0.2091,-0.2098,-0.2093,-0.2092,-0.2075,-0.208,-0.202,-0.2006,-0.1945,-0.19,-0.1931,-0.1807,-0.1863,-0.1757,-0.1755,-0.1747,-0.1747,-0.1587,-0.1756,-0.1756,-0.1757,-0.1757,0,-0.2044,-0.2038,-0.2063,-0.206,-0.2055,-0.2074,-0.2066,-0.2071,-0.2076,-0.2065,-0.2059,-0.2035,-0.1985,-0.1925,-0.1877,-0.1759,-0.1785,-0.1693,-0.1705,-0.1695,-0.1691,-0.172,-0.1755,-0.1753,-0.1754,-0.1755,-0.1755,0,-0.1997,-0.2013,-0.2009,-0.2031,-0.2036,-0.2033,-0.2055,-0.2053,-0.2071,-0.2059,-0.2055,-0.2033,-0.1942,-0.1875,-0.178,-0.1727,-0.1603,-0.1587,-0.1568,-0.1575,-0.1476,-0.1505,-0.1357,-0.1311,-0.1445,-0.1442,-0.144,0,-0.1966,-0.1959,-0.1984,-0.1984,-0.1991,-0.1998,-0.2003,-0.2036,-0.204,-0.2046,-0.2034,-0.1963,-0.1886,-0.172,-0.1607,-0.1474,-0.1489,-0.1376,-0.1397,-0.1405,-0.1449,-0.1478,-0.1453,-0.1336,-0.1333,-0.1331,-0.1329,0,-0.1908,-0.192,-0.1922,-0.1926,-0.1933,-0.1942,-0.1956,-0.1966,-0.1997,-0.199,-0.1955,-0.19,-0.1745,-0.159,-0.1425,-0.134,-0.1356,-0.1323,-0.134,-0.132,-0.1334,-0.132,-0.1473,-0.1309,-0.1311,-0.1313,-0.1314,-0.1315,-0.1857,-0.1847,-0.185,-0.1844,-0.1861,-0.1864,-0.1838,-0.1869,-0.1859,-0.1825,-0.1838,-0.1736,-0.1623,-0.1373,-0.1281,-0.1143,-0.117,-0.1121,-0.1147,-0.1168,-0.1127,-0.121,-0.106,-0.1061,-0.1061,-0.1062,-0.1062,0,-0.1771,-0.1765,-0.1763,-0.175,-0.1728,-0.1768,-0.1779,-0.1739,-0.1695,-0.1697,-0.1639,-0.1533,-0.1375,-0.1269,-0.1117,-0.103,-0.1003,-0.0991,-0.1048,-0.1023,-0.1101,-0.11,-0.0941,-0.0941,-0.0942,-0.0942,-0.0942,-0.0942,-0.1723,-0.1682,-0.1679,-0.1606,-0.1599,-0.1542,-0.1528,-0.1498,-0.1484,-0.1399,-0.1356,-0.133,-0.1247,-0.125,-0.1107,-0.1019,-0.0996,-0.0945,-0.0941,-0.1054,-0.1071,-0.1086,-0.1091,-0.0933,-0.0933,-0.085,-0.0849,-0.0849]},{"header":{"parameterUnit":"m.s-1","parameterCategory":2,"la1":30.2991,"la2":30.254,"lo1":-89.0895,"lo2":-89.0444,"dy":0.0017,"dx":0.0017,"nx":28,"ny":28,"refTime":"2023-04-22T21:00:00:Z","depth":"0","parameterNumber":3,"parameterNumberName":"V-component_of_CURRENTS"},"data":[0,0,0,0,0,0,0,0,0,0,0,0,0,0,0,0,0,0,0,0,0,0,0,0,0,0,0,0,0,0,0,0,0,0,0,0,0,0,0,0,0,0,0,0,0,0,0,0,0,0,0,0,0,0,0,0,0,0,-0.065,-0.0649,0,-0.0575,-0.0574,-0.0573,-0.0509,-0.0508,-0.0508,-0.0507,-0.0283,-0.0277,-0.0272,0,0,0,0,0,0,0,0,0,0,0,0,0,-0.0666,-0.0667,-0.065,-0.0649,-0.0649,-0.0575,-0.0574,-0.0573,-0.0509,-0.0508,-0.0508,-0.0507,-0.0284,-0.0278,-0.0272,0,0,0,0,0,0,0,0,0,0,0,0,0,-0.0632,-0.0667,-0.065,-0.0608,-0.0604,-0.0576,-0.0574,-0.0573,-0.0509,-0.0508,-0.0507,-0.0506,-0.0286,-0.0279,-0.0271,-0.0241,0,0,-0.0246,-0.0243,0,0,0,0,0,0,0,0,-0.0634,-0.0631,-0.0615,-0.0611,-0.0606,-0.0551,-0.0497,-0.0454,-0.051,-0.0545,-0.0507,-0.0506,-0.036,-0.0346,-0.0335,-0.023,-0.022,-0.0245,-0.024,-0.0237,-0.0235,0,0,0,0,0,0,0,-0.0636,-0.0634,-0.062,-0.0615,-0.0609,-0.0568,-0.0563,-0.0489,-0.0455,-0.0541,-0.0537,-0.053,-0.0356,-0.0343,-0.0329,-0.0217,-0.0246,-0.0238,-0.0233,-0.023,-0.003,-0.003,0,0,0,0,0,0,-0.0652,-0.0637,-0.0622,-0.0618,-0.0619,-0.0569,-0.0563,-0.0569,-0.0459,-0.0443,-0.0531,-0.0527,-0.0357,-0.0338,-0.032,-0.0261,-0.0237,-0.0229,-0.0225,-0.0031,-0.003,-0.003,0,0,0,0,0,0,-0.0653,-0.0652,-0.0625,-0.0625,-0.0619,-0.0571,-0.0577,-0.0568,-0.0553,-0.0453,-0.0433,-0.0524,-0.0356,-0.0331,-0.0272,-0.0252,-0.0226,-0.0219,-0.0031,-0.0031,-0.003,-0.0152,0,0,0,0,0,0,-0.0654,-0.0653,-0.0659,-0.0627,-0.0619,-0.0612,-0.0578,-0.0567,-0.055,-0.0545,-0.0441,-0.0419,-0.0353,-0.0285,-0.0264,-0.024,-0.0212,-0.0032,-0.0031,-0.003,-0.0148,-0.0155,-0.0161,0,0,0,0,0,-0.0655,-0.0663,-0.066,-0.0658,-0.0631,-0.0612,-0.0605,-0.0566,-0.0551,-0.0548,-0.0491,-0.0422,-0.0263,-0.028,-0.0255,-0.0228,-0.0033,-0.0031,-0.003,-0.0146,-0.0154,-0.0161,0,0,0,0,0,0,-0.0665,-0.0657,-0.0652,-0.0657,-0.064,-0.0602,-0.0592,-0.0574,-0.0529,-0.052,-0.0431,-0.0407,-0.0345,-0.0272,-0.0292,-0.0165,-0.0129,-0.0123,-0.0225,-0.0232,-0.0238,-0.0245,-0.0206,0,0,0,0,0,-0.0676,-0.0685,-0.0667,-0.067,-0.0666,-0.0635,-0.0621,-0.0601,-0.056,-0.0541,-0.0474,-0.0392,-0.0322,-0.027,-0.0201,-0.0136,-0.0084,-0.0095,-0.0102,-0.0108,-0.0095,-0.0034,-0.0035,-0.0026,-0.0026,-0.0026,0,0,-0.068,-0.0677,-0.068,-0.0674,-0.0658,-0.0653,-0.0624,-0.0612,-0.06,-0.0519,-0.0481,-0.0421,-0.0314,-0.0252,-0.0213,-0.0186,-0.0086,-0.0107,-0.0113,-0.0096,-0.0033,-0.0034,-0.0035,-0.0026,-0.0026,-0.0026,0,0,-0.0694,-0.0694,-0.0707,-0.07,-0.0688,-0.0668,-0.067,-0.064,-0.0619,-0.0586,-0.0524,-0.0462,-0.0354,-0.0278,-0.0223,-0.0217,-0.0136,-0.0183,-0.0203,-0.0146,-0.0147,-0.0147,-0.0107,-0.0103,-0.0171,-0.0171,-0.0171,0,-0.0697,-0.0716,-0.0705,-0.0714,-0.0708,-0.068,-0.0686,-0.0661,-0.0616,-0.0594,-0.0583,-0.0442,-0.0361,-0.027,-0.0268,-0.023,-0.0195,-0.0192,-0.0158,-0.0156,-0.0154,-0.0113,-0.0106,-0.0177,-0.0176,-0.0176,-0.0175,0,-0.0721,-0.0735,-0.074,-0.0747,-0.0737,-0.0739,-0.0711,-0.0696,-0.0672,-0.0638,-0.0572,-0.0488,-0.0393,-0.0359,-0.0309,-0.024,-0.0222,-0.0193,-0.015,-0.0163,-0.0118,-0.0109,-0.0185,-0.0183,-0.0181,-0.018,0,0,-0.0732,-0.0755,-0.0757,-0.077,-0.0758,-0.0753,-0.0736,-0.0707,-0.0686,-0.0642,-0.0604,-0.05,-0.0459,-0.0393,-0.0323,-0.0266,-0.0234,-0.0227,-0.0221,-0.0208,-0.0124,-0.0087,-0.0073,-0.021,-0.0208,-0.0207,-0.011,0,-0.0755,-0.0791,-0.0786,-0.0804,-0.0821,-0.0791,-0.0774,-0.074,-0.0702,-0.0657,-0.0573,-0.0508,-0.0468,-0.0425,-0.0368,-0.0257,-0.021,-0.0263,-0.0093,-0.0087,-0.0069,-0.0061,-0.0028,0.0064,-0.0101,-0.0099,-0.0098,0,-0.0781,-0.0805,-0.0838,-0.0846,-0.0847,-0.0845,-0.0813,-0.0796,-0.0723,-0.069,-0.0622,-0.0553,-0.0451,-0.0427,-0.0266,-0.0306,-0.0224,-0.0153,-0.0147,-0.0056,-0.0032,0.0061,0.0088,0.0198,-0.0083,-0.0084,-0.0085,0,-0.081,-0.0836,-0.0868,-0.0873,-0.0874,-0.0871,-0.086,-0.0805,-0.0781,-0.0707,-0.0669,-0.0562,-0.0484,-0.0383,-0.023,-0.0248,-0.0061,-0.0063,0.0041,0.0044,0.0139,0.0148,0.0284,0.0039,0.0039,0.0038,0.0038,0,-0.0844,-0.0866,-0.0888,-0.0907,-0.0927,-0.091,-0.0902,-0.0875,-0.0815,-0.0768,-0.0688,-0.0613,-0.0468,-0.034,-0.0234,-0.0058,-0.006,0.0047,0.0081,0.0096,0.01,0.0257,0.0294,0.0042,0.0041,0.004,0.004,0,-0.0875,-0.0891,-0.093,-0.0945,-0.0949,-0.0964,-0.0944,-0.093,-0.0871,-0.0805,-0.0778,-0.0633,-0.0462,-0.0318,-0.0121,-0.004,0.0188,0.0168,0.0167,0.0199,0.0375,0.0404,0.0592,0.0667,0.0285,0.0287,0.0288,0,-0.0896,-0.0925,-0.0965,-0.0986,-0.0997,-0.101,-0.1011,-0.0969,-0.0937,-0.0801,-0.076,-0.0586,-0.0436,-0.0154,0.0023,0.0211,0.0289,0.0338,0.0316,0.0405,0.0462,0.0476,0.0526,0.0384,0.0386,0.0388,0.0389,0,-0.0932,-0.0949,-0.0982,-0.1031,-0.1051,-0.1064,-0.1052,-0.1028,-0.0947,-0.0868,-0.0707,-0.0577,-0.0293,-0.004,0.0192,0.0297,0.0425,0.0377,0.0489,0.0573,0.0584,0.0665,0.0281,0.0404,0.0403,0.0402,0.0401,0.04,-0.0949,-0.0983,-0.1025,-0.1066,-0.1093,-0.1095,-0.1081,-0.1026,-0.0955,-0.0786,-0.0674,-0.0436,-0.0101,0.0244,0.0369,0.0617,0.0573,0.0677,0.0709,0.0717,0.0787,0.0425,0.0573,0.0573,0.0572,0.0572,0.0572,0,-0.096,-0.1002,-0.1051,-0.1095,-0.1121,-0.1126,-0.1088,-0.1028,-0.0914,-0.073,-0.0557,-0.0145,0.0176,0.0467,0.0801,0.0936,0.0964,0.0999,0.1034,0.1072,0.078,0.0781,0.0961,0.0961,0.096,0.096,0.096,0.096,-0.0966,-0.1018,-0.105,-0.1103,-0.1127,-0.1119,-0.1086,-0.0961,-0.0809,-0.0483,-0.0217,-0.0004,0.0392,0.0903,0.1211,0.1232,0.1358,0.1344,0.1413,0.1208,0.118,0.1153,0.1166,0.1423,0.1423,0.1703,0.1705,0.1707]}],[{"header":{"parameterUnit":"m.s-1","parameterCategory":2,"la1":30.2991,"la2":30.254,"lo1":-89.0895,"lo2":-89.0444,"dy":0.0017,"dx":0.0017,"nx":28,"ny":28,"refTime":"2023-04-22T21:00:00:Z","depth":"2","parameterNumber":2,"parameterNumberName":"U-component_of_CURRENTS"},"data":[0,0,0,0,0,0,0,0,0,0,0,0,0,0,0,0,0,0,0,0,0,0,0,0,0,0,0,0,0,0,0,0,0,0,0,0,0,0,0,0,0,0,0,0,0,0,0,0,0,0,0,0,0,0,0,0,0,0,-0.2104,-0.2105,0,-0.2155,-0.2155,-0.2156,-0.2167,-0.2166,-0.2166,-0.2166,-0.227,-0.2273,-0.2276,0,0,0,0,0,0,0,0,0,0,0,0,0,-0.2057,-0.2058,-0.2104,-0.2105,-0.2106,-0.2155,-0.2155,-0.2156,-0.2167,-0.2166,-0.2166,-0.2166,-0.2269,-0.2273,-0.2277,0,0,0,0,0,0,0,0,0,0,0,0,0,-0.2089,-0.2058,-0.2104,-0.2118,-0.2119,-0.2155,-0.2156,-0.2156,-0.2167,-0.2166,-0.2166,-0.2165,-0.2268,-0.2273,-0.2277,-0.2314,0,0,-0.2291,-0.2293,0,0,0,0,0,0,0,0,-0.2087,-0.209,-0.2115,-0.2117,-0.2119,-0.2155,-0.2177,-0.2212,-0.2167,-0.2148,-0.2166,-0.2165,-0.2238,-0.2245,-0.2253,-0.2319,-0.2324,-0.2292,-0.2294,-0.2296,-0.2298,0,0,0,0,0,0,0,-0.2085,-0.2088,-0.2123,-0.2116,-0.2118,-0.2135,-0.2139,-0.2184,-0.2195,-0.2149,-0.2151,-0.2158,-0.2239,-0.2249,-0.2256,-0.2325,-0.2292,-0.2296,-0.2298,-0.23,-0.2388,-0.2388,0,0,0,0,0,0,-0.2079,-0.2086,-0.2122,-0.2125,-0.2103,-0.2136,-0.214,-0.2143,-0.2193,-0.22,-0.2158,-0.2158,-0.2241,-0.2251,-0.226,-0.2258,-0.2296,-0.2301,-0.2303,-0.2388,-0.2388,-0.2387,0,0,0,0,0,0,-0.2077,-0.2081,-0.212,-0.2108,-0.2114,-0.2137,-0.2141,-0.2144,-0.2154,-0.2199,-0.2207,-0.2164,-0.2241,-0.2253,-0.2282,-0.2264,-0.2303,-0.2307,-0.2389,-0.2388,-0.2388,-0.2285,0,0,0,0,0,0,-0.2076,-0.208,-0.2081,-0.2107,-0.2114,-0.2132,-0.2141,-0.2146,-0.2159,-0.216,-0.2207,-0.2216,-0.2242,-0.2274,-0.2286,-0.2271,-0.231,-0.2389,-0.2389,-0.2388,-0.2289,-0.2281,-0.2275,0,0,0,0,0,-0.2074,-0.2072,-0.208,-0.2085,-0.2114,-0.2131,-0.2136,-0.2151,-0.216,-0.2159,-0.2183,-0.2215,-0.2278,-0.2278,-0.2292,-0.2277,-0.239,-0.2389,-0.2388,-0.2293,-0.2283,-0.2275,0,0,0,0,0,0,-0.2051,-0.2074,-0.2083,-0.2088,-0.2106,-0.2133,-0.2137,-0.2152,-0.2172,-0.2172,-0.2214,-0.2224,-0.2238,-0.228,-0.2279,-0.2301,-0.2338,-0.234,-0.2261,-0.2253,-0.2245,-0.2208,-0.2314,0,0,0,0,0,-0.2048,-0.205,-0.2077,-0.208,-0.2088,-0.2114,-0.2125,-0.2135,-0.2157,-0.2165,-0.2196,-0.2228,-0.2247,-0.2266,-0.2294,-0.2317,-0.2317,-0.2318,-0.231,-0.2303,-0.2283,-0.2259,-0.2246,-0.2384,-0.2384,-0.2384,0,0,-0.204,-0.2053,-0.2055,-0.2075,-0.209,-0.2095,-0.2118,-0.2129,-0.2126,-0.2177,-0.2182,-0.2206,-0.2247,-0.2254,-0.2266,-0.2287,-0.2264,-0.2302,-0.2296,-0.2279,-0.2256,-0.2242,-0.223,-0.2384,-0.2384,-0.2384,0,0,-0.2024,-0.2037,-0.2034,-0.2047,-0.2068,-0.2081,-0.2083,-0.2109,-0.211,-0.2127,-0.2145,-0.214,-0.221,-0.2197,-0.221,-0.2184,-0.2222,-0.2221,-0.2158,-0.2134,-0.2121,-0.211,-0.2084,-0.2072,-0.2221,-0.2221,-0.2221,0,-0.2016,-0.2016,-0.2036,-0.2039,-0.2046,-0.2072,-0.2071,-0.2075,-0.2103,-0.2101,-0.2118,-0.2148,-0.2166,-0.2148,-0.2125,-0.216,-0.2169,-0.2184,-0.212,-0.2109,-0.21,-0.2076,-0.2064,-0.2216,-0.2217,-0.2217,-0.2218,0,-0.1998,-0.2002,-0.2001,-0.2009,-0.2017,-0.202,-0.2032,-0.2035,-0.2047,-0.2052,-0.2043,-0.2052,-0.2069,-0.2069,-0.2086,-0.2035,-0.2069,-0.2106,-0.2133,-0.2079,-0.2059,-0.2047,-0.2209,-0.2211,-0.2212,-0.2213,0,0,-0.1972,-0.1985,-0.1986,-0.1988,-0.2002,-0.2009,-0.1996,-0.1993,-0.1991,-0.199,-0.1978,-0.1954,-0.1962,-0.1973,-0.1989,-0.195,-0.1866,-0.1997,-0.1998,-0.1953,-0.1822,-0.1757,-0.174,-0.1908,-0.1906,-0.1904,-0.1831,0,-0.1953,-0.195,-0.196,-0.1955,-0.1955,-0.1971,-0.1964,-0.1962,-0.1967,-0.1963,-0.1935,-0.1937,-0.1929,-0.1939,-0.1889,-0.1893,-0.1835,-0.1882,-0.1897,-0.1896,-0.183,-0.1723,-0.1637,-0.1557,-0.182,-0.1818,-0.1817,0,-0.1927,-0.1932,-0.1924,-0.1936,-0.1938,-0.1937,-0.1937,-0.1935,-0.1925,-0.1931,-0.1907,-0.1916,-0.185,-0.1863,-0.1782,-0.1828,-0.1798,-0.1783,-0.1782,-0.1745,-0.181,-0.1658,-0.1527,-0.1798,-0.18,-0.1801,-0.1802,0,-0.1895,-0.1904,-0.1897,-0.19,-0.1916,-0.1914,-0.1922,-0.1922,-0.1922,-0.1911,-0.1917,-0.1866,-0.1849,-0.1798,-0.1749,-0.1779,-0.1667,-0.1717,-0.1616,-0.1614,-0.1549,-0.1543,-0.1623,-0.1623,-0.1623,-0.1624,-0.1624,0,-0.1866,-0.1862,-0.1885,-0.1883,-0.1879,-0.1899,-0.1895,-0.1902,-0.191,-0.1898,-0.1898,-0.1875,-0.1833,-0.1778,-0.1734,-0.1623,-0.1652,-0.1559,-0.157,-0.1512,-0.1504,-0.1735,-0.1749,-0.1621,-0.1622,-0.1622,-0.1623,0,-0.1825,-0.184,-0.1837,-0.1858,-0.1863,-0.1862,-0.1885,-0.1884,-0.1904,-0.1891,-0.1888,-0.187,-0.1787,-0.1731,-0.1645,-0.1595,-0.1512,-0.1466,-0.1392,-0.1392,-0.1481,-0.1491,-0.1341,-0.1337,-0.1335,-0.1332,-0.133,0,-0.1799,-0.1792,-0.1814,-0.1814,-0.1822,-0.183,-0.1834,-0.1867,-0.1869,-0.1874,-0.1859,-0.1797,-0.1723,-0.1575,-0.1466,-0.1347,-0.1409,-0.1212,-0.1221,-0.1416,-0.1442,-0.1457,-0.1471,-0.1103,-0.11,-0.1097,-0.1094,0,-0.1746,-0.1757,-0.1757,-0.1759,-0.1764,-0.1771,-0.1782,-0.1787,-0.1815,-0.1808,-0.1771,-0.1719,-0.1574,-0.1399,-0.1251,-0.1174,-0.1226,-0.1145,-0.135,-0.1189,-0.1186,-0.1215,-0.1237,-0.1067,-0.107,-0.1072,-0.1074,-0.1075,-0.17,-0.1689,-0.1688,-0.168,-0.1693,-0.1688,-0.1655,-0.1678,-0.1663,-0.161,-0.1636,-0.1509,-0.1436,-0.1143,-0.1033,-0.093,-0.1015,-0.0977,-0.0988,-0.1003,-0.0989,-0.098,-0.0821,-0.0822,-0.0824,-0.0824,-0.0825,0,-0.162,-0.161,-0.1605,-0.1584,-0.1556,-0.1597,-0.1592,-0.1532,-0.1473,-0.1448,-0.1385,-0.1152,-0.1045,-0.096,-0.077,-0.0711,-0.0722,-0.0669,-0.0713,-0.074,-0.0763,-0.0741,-0.0505,-0.0504,-0.0503,-0.0502,0,0,-0.1574,-0.1529,-0.152,-0.1437,-0.1426,-0.1347,-0.1322,-0.1252,-0.1204,-0.1049,-0.0967,-0.1029,-0.0986,-0.0783,-0.0701,-0.0586,-0.0661,-0.054,-0.08,-0.0884,-0.0907,-0.0941,-0.0935,0,0,0,0,0]},{"header":{"parameterUnit":"m.s-1","parameterCategory":2,"la1":30.2991,"la2":30.254,"lo1":-89.0895,"lo2":-89.0444,"dy":0.0017,"dx":0.0017,"nx":28,"ny":28,"refTime":"2023-04-22T21:00:00:Z","depth":"2","parameterNumber":3,"parameterNumberName":"V-component_of_CURRENTS"},"data":[0,0,0,0,0,0,0,0,0,0,0,0,0,0,0,0,0,0,0,0,0,0,0,0,0,0,0,0,0,0,0,0,0,0,0,0,0,0,0,0,0,0,0,0,0,0,0,0,0,0,0,0,0,0,0,0,0,0,-0.0635,-0.0634,0,-0.0569,-0.0568,-0.0567,-0.0506,-0.0505,-0.0504,-0.0504,-0.0322,-0.0318,-0.0314,0,0,0,0,0,0,0,0,0,0,0,0,0,-0.0642,-0.0642,-0.0635,-0.0634,-0.0633,-0.0569,-0.0568,-0.0567,-0.0506,-0.0505,-0.0504,-0.0503,-0.0323,-0.0318,-0.0313,0,0,0,0,0,0,0,0,0,0,0,0,0,-0.0613,-0.0642,-0.0635,-0.0595,-0.0591,-0.0569,-0.0568,-0.0567,-0.0506,-0.0505,-0.0504,-0.0503,-0.0325,-0.0319,-0.0312,-0.0295,0,0,-0.0293,-0.0291,0,0,0,0,0,0,0,0,-0.0615,-0.0613,-0.0602,-0.0598,-0.0593,-0.0545,-0.0504,-0.047,-0.0506,-0.0538,-0.0504,-0.0502,-0.0387,-0.0375,-0.0366,-0.0287,-0.0279,-0.0293,-0.0289,-0.0286,-0.0285,0,0,0,0,0,0,0,-0.0617,-0.0615,-0.0608,-0.0601,-0.0596,-0.0558,-0.0554,-0.0497,-0.0467,-0.0535,-0.0531,-0.0524,-0.0383,-0.0373,-0.0361,-0.0276,-0.0293,-0.0287,-0.0284,-0.0281,-0.0144,-0.0144,0,0,0,0,0,0,-0.0631,-0.0618,-0.061,-0.0606,-0.0602,-0.0559,-0.0554,-0.0561,-0.047,-0.0456,-0.0525,-0.0522,-0.0384,-0.0369,-0.0354,-0.0308,-0.0286,-0.028,-0.0277,-0.0143,-0.0144,-0.0144,0,0,0,0,0,0,-0.0632,-0.0632,-0.0613,-0.061,-0.0605,-0.0561,-0.0569,-0.056,-0.0547,-0.0464,-0.0447,-0.052,-0.0382,-0.0363,-0.0317,-0.0301,-0.0278,-0.0272,-0.0143,-0.0144,-0.0144,-0.0228,0,0,0,0,0,0,-0.0633,-0.0633,-0.0639,-0.0611,-0.0605,-0.0604,-0.057,-0.056,-0.0545,-0.054,-0.0454,-0.0436,-0.038,-0.0327,-0.0311,-0.0292,-0.0267,-0.0143,-0.0143,-0.0144,-0.0225,-0.0231,-0.0236,0,0,0,0,0,-0.0633,-0.0644,-0.0641,-0.0639,-0.0618,-0.0604,-0.0598,-0.0562,-0.0546,-0.0545,-0.0496,-0.0439,-0.0316,-0.0323,-0.0304,-0.0282,-0.0143,-0.0143,-0.0144,-0.0223,-0.023,-0.0236,0,0,0,0,0,0,-0.0644,-0.0638,-0.0633,-0.0641,-0.0628,-0.0594,-0.0587,-0.0569,-0.0532,-0.0524,-0.0449,-0.0428,-0.0382,-0.0326,-0.0336,-0.0244,-0.0216,-0.0212,-0.0282,-0.0288,-0.0294,-0.0293,-0.0262,0,0,0,0,0,-0.0655,-0.0665,-0.065,-0.0657,-0.0654,-0.0625,-0.0614,-0.0596,-0.0561,-0.0544,-0.0489,-0.0424,-0.0369,-0.0327,-0.0276,-0.0226,-0.0178,-0.0197,-0.0203,-0.0208,-0.0194,-0.0131,-0.013,-0.0144,-0.0144,-0.0144,0,0,-0.066,-0.0659,-0.0663,-0.066,-0.0647,-0.0644,-0.0616,-0.0608,-0.0597,-0.0528,-0.0496,-0.0449,-0.0366,-0.0318,-0.0288,-0.0265,-0.0184,-0.0208,-0.0213,-0.0196,-0.0131,-0.013,-0.0128,-0.0145,-0.0145,-0.0145,0,0,-0.0676,-0.0679,-0.0692,-0.0687,-0.0678,-0.066,-0.0662,-0.0637,-0.0618,-0.0593,-0.0539,-0.0487,-0.0407,-0.0341,-0.0296,-0.0298,-0.0227,-0.0279,-0.0287,-0.0227,-0.0226,-0.0223,-0.0186,-0.018,-0.0267,-0.0267,-0.0267,0,-0.068,-0.0699,-0.0692,-0.0701,-0.0695,-0.0671,-0.0677,-0.0657,-0.0619,-0.0597,-0.0591,-0.0477,-0.0412,-0.0332,-0.0332,-0.0306,-0.0274,-0.0272,-0.0235,-0.0232,-0.0228,-0.019,-0.0182,-0.0271,-0.0271,-0.027,-0.027,0,-0.0705,-0.0718,-0.0725,-0.0732,-0.0724,-0.0728,-0.0704,-0.0691,-0.067,-0.0639,-0.0582,-0.0512,-0.0433,-0.0408,-0.0366,-0.0299,-0.0288,-0.0265,-0.0222,-0.0231,-0.0191,-0.0181,-0.0277,-0.0276,-0.0274,-0.0273,0,0,-0.0719,-0.074,-0.0742,-0.0752,-0.0743,-0.074,-0.0725,-0.0696,-0.0677,-0.064,-0.0601,-0.0515,-0.0477,-0.0424,-0.0366,-0.0307,-0.0263,-0.0276,-0.0271,-0.0247,-0.015,-0.0124,-0.011,-0.0239,-0.0237,-0.0236,-0.0142,0,-0.0739,-0.0772,-0.0768,-0.0784,-0.0797,-0.077,-0.0756,-0.0725,-0.0691,-0.0649,-0.0572,-0.0517,-0.0482,-0.0445,-0.0385,-0.0288,-0.0236,-0.0291,-0.0136,-0.0132,-0.0113,-0.0097,-0.0114,-0.003,-0.0132,-0.013,-0.0129,0,-0.0764,-0.0784,-0.0812,-0.0817,-0.0817,-0.0816,-0.0785,-0.077,-0.0702,-0.0673,-0.0607,-0.0548,-0.0449,-0.043,-0.0274,-0.0315,-0.0238,-0.0172,-0.0166,-0.0098,-0.0086,-0.0029,-0.0007,-0.0111,-0.0113,-0.0114,-0.0115,0,-0.0787,-0.0809,-0.0835,-0.0839,-0.084,-0.0836,-0.0826,-0.0776,-0.0755,-0.0683,-0.0651,-0.0545,-0.0477,-0.0374,-0.0238,-0.0254,-0.0076,-0.0077,0.0016,0.0017,0.006,0.0063,0.0031,0.0031,0.003,0.003,0.003,0,-0.0814,-0.0832,-0.0852,-0.0868,-0.0885,-0.0869,-0.0862,-0.0836,-0.0783,-0.0742,-0.0665,-0.0599,-0.0458,-0.0341,-0.0238,-0.0075,-0.0071,0.0027,0.0055,0.0027,0.0026,0.0007,0.0003,0.0034,0.0033,0.0032,0.0032,0,-0.084,-0.0854,-0.0887,-0.09,-0.0904,-0.0918,-0.0903,-0.0892,-0.0837,-0.0781,-0.0756,-0.0623,-0.0465,-0.0327,-0.0139,-0.006,0.0083,0.0137,0.0084,0.0105,0.0128,0.0119,0.0245,0.0247,0.0248,0.025,0.0251,0,-0.0856,-0.0881,-0.0918,-0.094,-0.0951,-0.0964,-0.0969,-0.093,-0.0905,-0.0784,-0.075,-0.0591,-0.0457,-0.019,-0.0023,0.0158,0.015,0.0239,0.0218,0.0141,0.0156,0.0143,0.0132,0.0228,0.0229,0.023,0.0231,0,-0.0887,-0.0905,-0.0934,-0.0984,-0.1007,-0.1022,-0.1016,-0.0998,-0.0926,-0.0858,-0.0719,-0.0601,-0.0339,-0.0124,0.0098,0.0194,0.0204,0.026,0.0225,0.0173,0.0133,0.0144,0.0133,0.0237,0.0236,0.0236,0.0236,0.0235,-0.0905,-0.0937,-0.098,-0.1023,-0.1052,-0.1062,-0.1055,-0.1013,-0.0955,-0.0812,-0.0704,-0.0505,-0.0306,0.0025,0.0184,0.031,0.0294,0.032,0.0315,0.031,0.0288,0.0253,0.0374,0.0374,0.0374,0.0374,0.0374,0,-0.092,-0.0962,-0.101,-0.1059,-0.1092,-0.1096,-0.1072,-0.1033,-0.0944,-0.0783,-0.0631,-0.0405,-0.0152,0.0044,0.0259,0.0388,0.0362,0.0399,0.0342,0.0335,0.0329,0.0305,0.0397,0.0398,0.0398,0.0399,0,0,-0.0931,-0.0984,-0.1015,-0.1079,-0.1108,-0.1119,-0.1096,-0.1017,-0.0895,-0.073,-0.0574,-0.036,-0.0126,0.0034,0.0195,0.0308,0.0285,0.0312,0.0278,0.0185,0.0178,0.0267,0.0221,0,0,0,0,0]}],[{"header":{"parameterUnit":"m.s-1","parameterCategory":2,"la1":30.2991,"la2":30.254,"lo1":-89.0895,"lo2":-89.0444,"dy":0.0017,"dx":0.0017,"nx":28,"ny":28,"refTime":"2023-04-22T21:00:00:Z","depth":"4","parameterNumber":2,"parameterNumberName":"U-component_of_CURRENTS"},"data":[0,0,0,0,0,0,0,0,0,0,0,0,0,0,0,0,0,0,0,0,0,0,0,0,0,0,0,0,0,0,0,0,0,0,0,0,0,0,0,0,0,0,0,0,0,0,0,0,0,0,0,0,0,0,0,0,0,0,-0.1523,-0.1524,0,-0.1606,-0.1607,-0.1608,-0.1669,-0.1669,-0.167,-0.167,-0.17,-0.1701,-0.1701,0,0,0,0,0,0,0,0,0,0,0,0,0,-0.144,-0.1441,-0.1523,-0.1524,-0.1525,-0.1606,-0.1607,-0.1609,-0.1669,-0.1669,-0.167,-0.167,-0.17,-0.1701,-0.1701,0,0,0,0,0,0,0,0,0,0,0,0,0,-0.1495,-0.1442,-0.1523,-0.1565,-0.1569,-0.1606,-0.1607,-0.1609,-0.1669,-0.1669,-0.167,-0.1671,-0.17,-0.1701,-0.1701,-0.1689,0,0,-0.1703,-0.1703,0,0,0,0,0,0,0,0,-0.1492,-0.1498,-0.1558,-0.1562,-0.1567,-0.1628,-0.1589,-0.1633,-0.1668,-0.1631,-0.167,-0.1671,-0.1671,-0.1674,-0.1688,-0.1691,-0.1692,-0.1703,-0.1703,-0.1703,-0.1703,0,0,0,0,0,0,0,-0.1488,-0.1495,-0.1556,-0.1559,-0.1564,-0.1588,-0.1596,-0.1598,-0.1644,-0.1634,-0.1639,-0.1648,-0.1673,-0.1688,-0.1689,-0.1692,-0.1703,-0.1703,-0.1703,-0.1704,-0.1684,-0.1683,0,0,0,0,0,0,-0.1476,-0.1491,-0.1553,-0.1559,-0.1531,-0.1589,-0.1598,-0.1608,-0.1646,-0.1653,-0.1647,-0.165,-0.1687,-0.1689,-0.1691,-0.17,-0.1703,-0.1704,-0.1704,-0.1684,-0.1683,-0.1683,0,0,0,0,0,0,-0.1473,-0.148,-0.155,-0.1527,-0.1537,-0.1589,-0.16,-0.1609,-0.1647,-0.1656,-0.1662,-0.1678,-0.1687,-0.169,-0.1721,-0.1701,-0.1704,-0.1704,-0.1685,-0.1684,-0.1683,-0.1704,0,0,0,0,0,0,-0.1471,-0.1479,-0.1495,-0.1526,-0.1538,-0.1577,-0.1599,-0.161,-0.165,-0.1655,-0.1684,-0.1686,-0.1688,-0.1721,-0.1722,-0.1701,-0.1705,-0.1687,-0.1685,-0.1683,-0.1705,-0.1704,-0.1703,0,0,0,0,0,-0.1467,-0.1478,-0.1495,-0.1504,-0.1554,-0.1577,-0.1586,-0.1625,-0.165,-0.1663,-0.1697,-0.1687,-0.1709,-0.1722,-0.1723,-0.1702,-0.1687,-0.1685,-0.1684,-0.1705,-0.1704,-0.1703,0,0,0,0,0,0,-0.1452,-0.1486,-0.1506,-0.1528,-0.1554,-0.1588,-0.1609,-0.1636,-0.1674,-0.1687,-0.1701,-0.1706,-0.171,-0.1708,-0.1721,-0.1687,-0.1685,-0.1684,-0.1701,-0.17,-0.17,-0.1672,-0.1705,0,0,0,0,0,-0.1455,-0.1473,-0.1504,-0.1524,-0.1539,-0.1579,-0.1601,-0.1624,-0.1656,-0.1676,-0.1699,-0.1707,-0.1698,-0.1707,-0.1699,-0.1704,-0.1688,-0.168,-0.168,-0.168,-0.1655,-0.1643,-0.164,-0.1676,-0.1676,-0.1676,0,0,-0.1456,-0.1476,-0.1489,-0.1523,-0.155,-0.1566,-0.1595,-0.1626,-0.164,-0.1669,-0.1707,-0.171,-0.1698,-0.1695,-0.1694,-0.1699,-0.1661,-0.1677,-0.1677,-0.1652,-0.1641,-0.1638,-0.1635,-0.1675,-0.1675,-0.1676,0,0,-0.1452,-0.1484,-0.1495,-0.1516,-0.1553,-0.1572,-0.1584,-0.1627,-0.1651,-0.1685,-0.1691,-0.1685,-0.1709,-0.1678,-0.1667,-0.1654,-0.1654,-0.1657,-0.1643,-0.1633,-0.163,-0.1627,-0.1611,-0.1607,-0.1664,-0.1664,-0.1664,0,-0.1456,-0.1472,-0.1501,-0.1514,-0.1534,-0.1574,-0.1587,-0.1608,-0.1659,-0.1671,-0.1697,-0.17,-0.1682,-0.1653,-0.164,-0.1647,-0.1659,-0.1655,-0.1634,-0.1631,-0.1627,-0.1611,-0.1606,-0.1665,-0.1665,-0.1665,-0.1665,0,-0.145,-0.1475,-0.1483,-0.1511,-0.1532,-0.1551,-0.1578,-0.1605,-0.1642,-0.1661,-0.1668,-0.1663,-0.1658,-0.1643,-0.1639,-0.1599,-0.1621,-0.1634,-0.1642,-0.1625,-0.1609,-0.1603,-0.1666,-0.1666,-0.1665,-0.1665,0,0,-0.1429,-0.1471,-0.1478,-0.1495,-0.1534,-0.1548,-0.1567,-0.1589,-0.1607,-0.164,-0.1654,-0.1614,-0.1625,-0.1608,-0.1601,-0.1583,-0.1556,-0.1606,-0.1606,-0.1598,-0.1553,-0.1452,-0.1437,-0.16,-0.1598,-0.1598,-0.1554,0,-0.1421,-0.1442,-0.1465,-0.149,-0.1504,-0.1541,-0.1556,-0.158,-0.161,-0.1633,-0.1616,-0.1621,-0.161,-0.1615,-0.1592,-0.1566,-0.1542,-0.1566,-0.1559,-0.1557,-0.1478,-0.1426,-0.1594,-0.155,-0.1548,-0.1547,-0.1547,0,-0.1402,-0.1423,-0.1445,-0.1486,-0.1497,-0.1517,-0.1553,-0.1571,-0.1594,-0.1619,-0.1624,-0.1632,-0.1587,-0.1594,-0.1539,-0.1576,-0.1549,-0.1532,-0.1531,-0.1417,-0.1445,-0.1564,-0.1536,-0.1537,-0.1538,-0.1539,-0.1539,0,-0.1365,-0.1407,-0.1427,-0.1442,-0.149,-0.151,-0.1537,-0.1569,-0.1585,-0.1609,-0.1625,-0.161,-0.1594,-0.1574,-0.152,-0.1549,-0.1469,-0.1505,-0.1386,-0.138,-0.1481,-0.1484,-0.145,-0.145,-0.145,-0.145,-0.145,0,-0.1334,-0.1354,-0.1418,-0.1429,-0.1455,-0.1497,-0.1525,-0.1551,-0.1584,-0.1582,-0.1614,-0.1598,-0.1593,-0.1555,-0.1523,-0.1417,-0.1468,-0.1347,-0.1347,-0.1492,-0.1496,-0.1477,-0.1481,-0.1448,-0.1449,-0.1449,-0.1449,0,-0.1283,-0.1327,-0.1355,-0.1417,-0.1438,-0.1458,-0.1517,-0.1527,-0.1572,-0.157,-0.1575,-0.1582,-0.1521,-0.15,-0.1441,-0.139,-0.1321,-0.1274,-0.1411,-0.1425,-0.1246,-0.1251,-0.1139,-0.1134,-0.1131,-0.1128,-0.1125,0,-0.1254,-0.1265,-0.1339,-0.1358,-0.139,-0.1431,-0.1451,-0.151,-0.1513,-0.1537,-0.1515,-0.1485,-0.1469,-0.1304,-0.1302,-0.1224,-0.1208,-0.1177,-0.1205,-0.1195,-0.1207,-0.1218,-0.1228,-0.1119,-0.1118,-0.1118,-0.1117,0,-0.1196,-0.1236,-0.1259,-0.1296,-0.1328,-0.1353,-0.1386,-0.1379,-0.1421,-0.1481,-0.1406,-0.1355,-0.1278,-0.122,-0.1154,-0.1108,-0.1203,-0.114,-0.1148,-0.1174,-0.1171,-0.1189,-0.1203,-0.1104,-0.1106,-0.1107,-0.1108,0,-0.1154,-0.1154,-0.1189,-0.1206,-0.125,-0.1243,-0.1279,-0.1265,-0.1274,-0.1308,-0.1275,-0.1245,-0.1259,-0.1156,-0.1102,-0.1036,-0.1027,-0.1006,-0.1021,-0.1035,-0.1017,-0.0999,-0.0846,0,0,0,0,0,-0.1098,-0.1078,-0.1092,-0.1095,-0.1137,-0.1152,-0.1211,-0.1246,-0.1292,-0.1205,-0.1237,-0.1159,-0.1064,-0.1058,-0.0962,-0.1047,-0.1031,-0.0934,-0.1017,-0.1035,-0.1049,-0.1035,0,0,0,0,0,0,-0.1056,-0.1064,-0.1051,-0.0995,-0.0976,-0.0996,-0.1029,-0.1069,-0.1031,-0.1087,-0.1038,-0.1085,-0.1006,-0.1081,-0.0931,-0.0927,-0.0957,-0.0929,-0.0926,-0.1027,-0.104,-0.1051,-0.1042,0,0,0,0,0]},{"header":{"parameterUnit":"m.s-1","parameterCategory":2,"la1":30.2991,"la2":30.254,"lo1":-89.0895,"lo2":-89.0444,"dy":0.0017,"dx":0.0017,"nx":28,"ny":28,"refTime":"2023-04-22T21:00:00:Z","depth":"4","parameterNumber":3,"parameterNumberName":"V-component_of_CURRENTS"},"data":[0,0,0,0,0,0,0,0,0,0,0,0,0,0,0,0,0,0,0,0,0,0,0,0,0,0,0,0,0,0,0,0,0,0,0,0,0,0,0,0,0,0,0,0,0,0,0,0,0,0,0,0,0,0,0,0,0,0,-0.0478,-0.0478,0,-0.045,-0.0449,-0.0449,-0.0413,-0.0413,-0.0412,-0.0412,-0.0324,-0.0322,-0.032,0,0,0,0,0,0,0,0,0,0,0,0,0,-0.0456,-0.0457,-0.0478,-0.0478,-0.0478,-0.045,-0.0449,-0.0449,-0.0413,-0.0413,-0.0412,-0.0411,-0.0324,-0.0322,-0.032,0,0,0,0,0,0,0,0,0,0,0,0,0,-0.045,-0.0457,-0.0478,-0.0457,-0.0454,-0.045,-0.0449,-0.0449,-0.0413,-0.0413,-0.0412,-0.0411,-0.0325,-0.0322,-0.032,-0.0319,0,0,-0.0311,-0.031,0,0,0,0,0,0,0,0,-0.0451,-0.0451,-0.046,-0.0458,-0.0456,-0.0434,-0.0409,-0.0403,-0.0414,-0.0429,-0.0411,-0.0411,-0.0356,-0.0351,-0.0347,-0.0315,-0.0311,-0.0311,-0.0309,-0.0308,-0.0307,0,0,0,0,0,0,0,-0.0451,-0.0452,-0.0467,-0.046,-0.0457,-0.0433,-0.0431,-0.0408,-0.0396,-0.0427,-0.0425,-0.0422,-0.0354,-0.035,-0.0345,-0.031,-0.0311,-0.0309,-0.0307,-0.0306,-0.0289,-0.029,0,0,0,0,0,0,-0.0459,-0.0453,-0.0467,-0.0466,-0.0452,-0.0434,-0.0433,-0.0442,-0.0397,-0.039,-0.0423,-0.0421,-0.0355,-0.0348,-0.0342,-0.033,-0.0308,-0.0306,-0.0304,-0.0288,-0.0289,-0.0291,0,0,0,0,0,0,-0.0459,-0.0461,-0.0469,-0.0458,-0.0457,-0.0436,-0.0446,-0.0442,-0.0441,-0.0395,-0.0386,-0.0427,-0.0354,-0.0346,-0.033,-0.0326,-0.0304,-0.0302,-0.0286,-0.0288,-0.029,-0.0311,0,0,0,0,0,0,-0.0459,-0.0462,-0.0473,-0.0459,-0.0458,-0.0473,-0.0447,-0.0442,-0.0441,-0.0437,-0.0396,-0.0386,-0.0353,-0.0334,-0.0327,-0.0322,-0.03,-0.0285,-0.0287,-0.0289,-0.0309,-0.0314,-0.0318,0,0,0,0,0,-0.0458,-0.0474,-0.0474,-0.0475,-0.0474,-0.0474,-0.0471,-0.0452,-0.0442,-0.0447,-0.0421,-0.0388,-0.0344,-0.0333,-0.0324,-0.0318,-0.0284,-0.0286,-0.0289,-0.0307,-0.0313,-0.0317,0,0,0,0,0,0,-0.0468,-0.0472,-0.0471,-0.0487,-0.0485,-0.0468,-0.0472,-0.0461,-0.0447,-0.0444,-0.0399,-0.0389,-0.0377,-0.0355,-0.0344,-0.0326,-0.031,-0.0311,-0.0327,-0.0332,-0.0336,-0.0318,-0.0297,0,0,0,0,0,-0.0478,-0.0494,-0.049,-0.0505,-0.0507,-0.0493,-0.0492,-0.0482,-0.0467,-0.046,-0.0432,-0.0406,-0.0382,-0.0363,-0.0346,-0.033,-0.0291,-0.0326,-0.033,-0.0333,-0.0317,-0.0255,-0.0251,-0.0299,-0.0299,-0.0299,0,0,-0.0486,-0.0491,-0.05,-0.0508,-0.0506,-0.051,-0.049,-0.0496,-0.0494,-0.0452,-0.0444,-0.0423,-0.0387,-0.0371,-0.0363,-0.0347,-0.0307,-0.0337,-0.0339,-0.032,-0.0257,-0.0252,-0.0247,-0.0301,-0.0301,-0.0301,0,0,-0.0505,-0.0517,-0.0534,-0.0536,-0.054,-0.053,-0.0536,-0.0529,-0.052,-0.0517,-0.0484,-0.0455,-0.0436,-0.0391,-0.0368,-0.0387,-0.0339,-0.0398,-0.0388,-0.0329,-0.0323,-0.0318,-0.0286,-0.0278,-0.039,-0.039,-0.039,0,-0.0513,-0.0534,-0.0537,-0.0551,-0.055,-0.0543,-0.0551,-0.0545,-0.0533,-0.0517,-0.0522,-0.0468,-0.0437,-0.0384,-0.039,-0.0389,-0.0363,-0.0366,-0.033,-0.0324,-0.0317,-0.0286,-0.0276,-0.0391,-0.0391,-0.0391,-0.0391,0,-0.0539,-0.0556,-0.0566,-0.058,-0.0581,-0.0591,-0.0582,-0.0582,-0.0576,-0.0556,-0.0526,-0.0488,-0.0444,-0.0439,-0.0415,-0.0359,-0.036,-0.0347,-0.0308,-0.0313,-0.0282,-0.0271,-0.0393,-0.0393,-0.0392,-0.0392,0,0,-0.0551,-0.0578,-0.0583,-0.059,-0.0597,-0.06,-0.0599,-0.0583,-0.0571,-0.0557,-0.0527,-0.0481,-0.0454,-0.0428,-0.0394,-0.0338,-0.0278,-0.0325,-0.0321,-0.0278,-0.0168,-0.0184,-0.0173,-0.0259,-0.0257,-0.0255,-0.0172,0,-0.0567,-0.0597,-0.0602,-0.062,-0.0631,-0.0622,-0.0618,-0.0602,-0.0587,-0.0561,-0.0505,-0.0475,-0.0453,-0.0432,-0.0371,-0.0304,-0.0248,-0.0303,-0.0183,-0.018,-0.0178,-0.0159,-0.0248,-0.0163,-0.0161,-0.0159,-0.0158,0,-0.0584,-0.0602,-0.0628,-0.0636,-0.0639,-0.0648,-0.0632,-0.0629,-0.0585,-0.057,-0.0519,-0.0484,-0.0401,-0.0391,-0.0255,-0.0296,-0.0229,-0.0177,-0.0173,-0.0163,-0.0173,-0.0153,-0.0137,-0.0139,-0.014,-0.0142,-0.0143,0,-0.0586,-0.0614,-0.0634,-0.0641,-0.0652,-0.0656,-0.0657,-0.0631,-0.0622,-0.0571,-0.0554,-0.0463,-0.0419,-0.032,-0.0223,-0.0233,-0.0082,-0.008,-0.0029,-0.0031,-0.0031,-0.0038,0.0031,0.0031,0.0031,0.0031,0.003,0,-0.0591,-0.0609,-0.0643,-0.0655,-0.0676,-0.0674,-0.0682,-0.0667,-0.0639,-0.0618,-0.0559,-0.0518,-0.0397,-0.0307,-0.0217,-0.0095,-0.0072,-0.0013,0.0002,-0.005,-0.0059,-0.0025,-0.0032,0.0034,0.0033,0.0032,0.0032,0,-0.059,-0.0612,-0.0643,-0.0671,-0.0683,-0.07,-0.0717,-0.0717,-0.0685,-0.0657,-0.0639,-0.0545,-0.0426,-0.0314,-0.0151,-0.009,0.0028,0.0067,-0.0012,-0.0005,0.0036,0.0026,0.0139,0.0139,0.014,0.014,0.014,0,-0.0588,-0.0608,-0.0664,-0.0694,-0.0714,-0.0742,-0.0761,-0.0746,-0.0739,-0.0669,-0.0648,-0.0537,-0.0464,-0.0248,-0.0136,0.0032,0.0055,0.0105,0.0093,0.005,0.0054,0.0043,0.0032,0.0141,0.0141,0.0141,0.0141,0,-0.059,-0.0621,-0.0652,-0.0718,-0.0758,-0.0789,-0.0809,-0.0798,-0.0763,-0.0739,-0.0631,-0.0519,-0.0388,-0.0237,-0.0114,0.0007,0.0066,0.0109,0.011,0.0099,0.0053,0.0054,0.0044,0.0143,0.0142,0.0142,0.0142,0,-0.0597,-0.0628,-0.0684,-0.0736,-0.0792,-0.0819,-0.0823,-0.0796,-0.0776,-0.0686,-0.065,-0.0506,-0.042,-0.0249,-0.0133,-0.0022,0.0009,0.0041,0.0045,0.0045,-0.0014,-0.0088,-0.0012,0,0,0,0,0,-0.06,-0.0642,-0.0696,-0.0759,-0.0815,-0.0842,-0.0848,-0.0839,-0.0797,-0.072,-0.0678,-0.055,-0.0358,-0.0275,-0.0162,-0.0141,0.0009,-0.0009,0.0043,0.015,0.0148,0.0094,0,0,0,0,0,0,-0.0607,-0.0664,-0.0695,-0.0768,-0.0811,-0.0864,-0.0865,-0.0836,-0.0778,-0.0718,-0.0611,-0.0541,-0.0356,-0.0427,-0.0168,-0.0135,-0.009,0.0083,0.0086,0.0151,0.0149,0.0148,0.0092,0,0,0,0,0]}]]